Flag for Nigeria Weather past 2 weeks in Lagos, Nigeria

Now
77 °F

Passing clouds.


Feels Like: 78 °F
Forecast: 77 / 89 °F
Wind: No wind

Location: Lagos / Ikeja

Current Time: May 30, 2015 at 6:08:04 AM

Latest Report: May 30, 2015 at 5:00 AM


Visibility: N/A

Pressure: 29.83 "Hg

Humidity: 89%

Dew point: 73 °F

Location of LagosLocation

Historic Weather in Lagos — Graph

°F

Lagos temperature yesterday

Maximum temperature yesterday: 90 °F (at 3:00 PM)
Minimum temperature yesterday: 73 °F (at 6:00 AM)
Average temperature yesterday: 80 °F

Past Weeks' High & Low Weather Summary

 TemperatureHumidityPressure
High93 °F (May 19, 2:00 PM)100% (May 21, 5:00 AM)30.01 "Hg (May 21, 5:00 AM)
Low73 °F (May 23, 1:00 PM)56% (May 19, 2:00 PM)29.77 "Hg (May 28, 4:00 PM)
Average83 °F84%29.87 "Hg
* Reported May 15 4:00 AM — May 30 4:00 AM, Lagos, Weather by CustomWeather, © 2015

Note: Actual official high and low records may vary slightly from our data, if they occured in-between our weather recording intervals... More about our weather records

Advertising

Lagos weather history for previous 24 hours

 ConditionsComfort  
Time TempWeatherWind HumidityBarometerVisibility
4:00 AM
Sat, May 30
77 °FPassing clouds.No wind89%29.83 "HgN/A
3:00 AM77 °FPassing clouds.No wind89%29.86 "HgN/A
2:00 AM79 °FPassing clouds.2 mph84%29.86 "HgN/A
1:00 AM79 °FPassing clouds.No wind84%29.86 "HgN/A
12:00 AM79 °FPassing clouds.2 mph89%29.83 "HgN/A
11:00 PM
Fri, May 29
81 °FPassing clouds.2 mph84%29.86 "HgN/A
10:00 PM81 °FPassing clouds.5 mph84%29.86 "HgN/A
9:00 PM81 °FPassing clouds.5 mph84%29.83 "HgN/A
8:00 PM82 °FPassing clouds.5 mph79%29.83 "HgN/A
7:00 PM82 °FPassing clouds.5 mph79%29.80 "HgN/A
6:00 PM84 °FPassing clouds.6 mph74%29.80 "HgN/A
5:00 PM86 °FPassing clouds.5 mph75%29.77 "HgN/A
4:00 PM90 °FPassing clouds.6 mph67%29.77 "HgN/A
3:00 PM90 °FPassing clouds.6 mph63%29.80 "HgN/A
2:00 PM88 °FScattered clouds.5 mph66%29.83 "HgN/A
1:00 PM86 °FPassing clouds.2 mph75%29.86 "HgN/A
11:00 AM79 °FPassing clouds.5 mph94%29.89 "Hg4 mi
10:00 AM77 °FPassing clouds.5 mph94%29.89 "Hg4 mi
9:00 AM75 °FPassing clouds.6 mph100%29.86 "HgN/A
8:00 AM73 °FThunderstorms. Scattered clouds.3 mph100%29.83 "Hg3 mi
7:00 AM73 °FThunderstorms. Partly sunny.5 mph94%29.83 "Hg3 mi
6:00 AM73 °FThunderstorms. Passing clouds.6 mph94%29.83 "Hg2 mi
Weather by CustomWeather, © 2015

See weather overviewHow to use our weather pages